This demonstration page uses our WeatherBlox Daily Observations layout. Learn more.

Hourly Observations for May 11, 2019

Temp ( °F °C ) Dew Point ( °F °C ) Humidity (%) Winds ( mph kmh ) Pressure ( in mb ) Visibility ( mi km ) Precip ( " mm )
12:15 am 00:15 Mostly Cloudy 63 17 63 17 100 100 Calm 30.03 1017 1.25 2.011675 0 0
12:35 am 00:35 Clear 63 17 63 17 100 100 Calm 30.02 1016 5 8.0467 0 0
12:55 am 00:55 Mostly Cloudy 63 17 63 17 100 100 Calm 30.03 1017 10 16.0934 0 0
1:15 am 01:15 Cloudy 63 17 63 17 100 100 Calm 30.03 1017 7 11.26538 0 0
1:35 am 01:35 Cloudy 61 16 61 16 100 100 Calm 30.03 1017 7 11.26538 0 0
1:55 am 01:55 Cloudy 61 16 61 16 100 100 Calm 30.03 1017 10 16.0934 0 0
2:15 am 02:15 Mostly Cloudy 61 16 61 16 100 100 N 5 7 30.03 1017 10 16.0934 0 0
2:35 am 02:35 Mostly Cloudy 61 16 61 16 100 100 Calm 30.02 1016 10 16.0934 0 0
2:55 am 02:55 Partly Cloudy 61 16 61 16 100 100 Calm 30.02 1016 10 16.0934 0 0
3:15 am 03:15 Clear 61 16 61 16 100 100 N 3 6 30.01 1016 10 16.0934 0 0
3:35 am 03:35 Partly Cloudy 61 16 61 16 100 100 Calm 30.01 1016 10 16.0934 0 0
3:55 am 03:55 Partly Cloudy 61 16 59 15 94 94 N 7 11 30.02 1016 10 16.0934 0 0
4:15 am 04:15 Partly Cloudy 61 16 59 15 94 94 N 7 11 30.03 1017 10 16.0934 0 0
4:35 am 04:35 Partly Cloudy 59 15 59 15 100 100 N 6 9 30.03 1017 10 16.0934 0 0
4:55 am 04:55 Partly Cloudy 59 15 59 15 100 100 N 6 9 30.03 1017 10 16.0934 0 0
5:15 am 05:15 Partly Cloudy 59 15 59 15 100 100 N 6 9 30.04 1017 10 16.0934 0 0
5:35 am 05:35 Partly Cloudy 59 15 59 15 100 100 N 6 9 30.04 1017 10 16.0934 0 0
5:55 am 05:55 Partly Cloudy 59 15 57 14 94 94 N 7 11 30.06 1018 10 16.0934 0 0
6:15 am 06:15 Partly Cloudy 61 16 57 14 88 88 N 6 9 30.05 1018 10 16.0934 0 0
6:35 am 06:35 Partly Cloudy 59 15 57 14 94 94 NNE 6 9 30.06 1018 10 16.0934 0 0
6:55 am 06:55 Sunny 59 15 55 13 88 88 NNE 7 11 30.06 1018 10 16.0934 0 0
7:15 am 07:15 Sunny 59 15 55 13 88 88 NNE 6 9 30.06 1018 10 16.0934 0 0
7:35 am 07:35 Mostly Cloudy 59 15 55 13 88 88 NNE 7 11 30.05 1018 10 16.0934 0 0
7:55 am 07:55 Cloudy 59 15 54 12 82 82 NNE 10 17 30.05 1018 10 16.0934 0 0
8:15 am 08:15 Partly Cloudy 59 15 54 12 82 82 NNE 9 15 30.06 1018 10 16.0934 0 0
8:35 am 08:35 Partly Cloudy 59 15 54 12 82 82 NNE 9 15 30.05 1018 10 16.0934 0 0
8:55 am 08:55 Partly Cloudy 59 15 52 11 77 77 N 8 13 30.09 1019 10 16.0934 0 0
9:15 am 09:15 Partly Cloudy 59 15 52 11 77 77 NNW 10 17 30.1 1019 10 16.0934 0 0
9:35 am 09:35 Mostly Cloudy 59 15 52 11 77 77 NNW 7 11 30.1 1019 10 16.0934 0 0
9:55 am 09:55 Cloudy 61 16 50 10 68 68 N 7 11 30.1 1019 10 16.0934 0 0
10:15 am 10:15 Partly Cloudy 61 16 52 11 72 72 NNE 7 11 30.09 1019 10 16.0934 0 0
10:35 am 10:35 Sunny 61 16 50 10 68 68 NNE 7 11 30.09 1019 10 16.0934 0 0
10:55 am 10:55 Partly Cloudy 59 15 50 10 72 72 N 8 13 30.1 1019 10 16.0934 0 0
11:15 am 11:15 Mostly Cloudy 59 15 50 10 72 72 N 9 15 30.1 1019 10 16.0934 0 0
11:35 am 11:35 Cloudy 61 16 50 10 68 68 NNE 8 13 30.1 1019 10 16.0934 0 0
11:55 am 11:55 Cloudy 61 16 50 10 68 68 NNE 7 11 30.08 1019 10 16.0934 0 0
12:15 pm 12:15 Cloudy 61 16 50 10 68 68 NNE 7 11 30.08 1019 10 16.0934 0 0
12:35 pm 12:35 Cloudy 61 16 50 10 68 68 N 8 13 30.08 1019 10 16.0934 0 0
12:55 pm 12:55 Cloudy 61 16 52 11 72 72 NNE 3 6 30.08 1019 10 16.0934 0 0
1:15 pm 13:15 Cloudy 61 16 52 11 72 72 N 5 7 30.08 1019 10 16.0934 0 0
1:35 pm 13:35 Cloudy 63 17 52 11 68 68 Calm 30.07 1018 10 16.0934 0 0
1:55 pm 13:55 Cloudy 61 16 52 11 72 72 N 3 6 30.07 1018 10 16.0934 0 0
2:15 pm 14:15 Cloudy 61 16 52 11 72 72 N 5 7 30.06 1018 10 16.0934 0 0
2:35 pm 14:35 Cloudy 63 17 52 11 68 68 Calm 30.05 1017 10 16.0934 0 0
2:55 pm 14:55 Cloudy 63 17 52 11 68 68 Calm 30.04 1017 10 16.0934 0 0
3:15 pm 15:15 Cloudy 63 17 52 11 68 68 ENE 5 7 30.03 1017 10 16.0934 0 0
3:35 pm 15:35 Cloudy 63 17 54 12 73 73 ENE 3 6 30.01 1016 10 16.0934 0 0
3:55 pm 15:55 Cloudy 63 17 54 12 73 73 ENE 3 6 30.01 1016 10 16.0934 0 0
4:15 pm 16:15 Cloudy 63 17 54 12 73 73 E 5 7 30 1016 10 16.0934 0 0
4:35 pm 16:35 Cloudy 63 17 54 12 73 73 ENE 5 7 29.98 1015 10 16.0934 0 0
4:55 pm 16:55 Cloudy 63 17 54 12 73 73 Calm 30 1016 10 16.0934 0 0
5:15 pm 17:15 Cloudy 63 17 55 13 77 77 NE 6 9 29.98 1015 7 11.26538 0 0
5:35 pm 17:35 Cloudy 61 16 55 13 83 83 ENE 6 9 29.98 1015 10 16.0934 0 0
5:55 pm 17:55 Cloudy 61 16 54 12 77 77 SSE 3 6 30 1016 10 16.0934 0 0
6:15 pm 18:15 Cloudy 61 16 55 13 83 83 Calm 29.99 1015 7 11.26538 0 0
6:35 pm 18:35 Cloudy 59 15 55 13 88 88 ENE 5 7 29.97 1015 5 8.0467 0 0
6:55 pm 18:55 Cloudy 59 15 55 13 88 88 ENE 6 9 29.96 1015 10 16.0934 0 0
7:15 pm 19:15 Cloudy 59 15 55 13 88 88 ENE 5 7 29.96 1015 10 16.0934 0 0
7:35 pm 19:35 Cloudy 59 15 55 13 88 88 NE 7 11 29.96 1015 10 16.0934 0 0
7:55 pm 19:55 Cloudy 59 15 55 13 88 88 ENE 5 7 29.96 1015 10 16.0934 0 0
8:15 pm 20:15 Cloudy 57 14 55 13 94 94 ENE 3 6 29.95 1014 7 11.26538 0 0
8:35 pm 20:35 Cloudy 55 13 55 13 100 100 NE 6 9 29.96 1015 5 8.0467 0 0
8:55 pm 20:55 Cloudy 55 13 55 13 100 100 NE 5 7 29.95 1014 4 6.43736 0 0
9:15 pm 21:15 Cloudy 55 13 55 13 100 100 NE 6 9 29.95 1014 4 6.43736 0 0
9:35 pm 21:35 Cloudy 55 13 55 13 100 100 NE 5 7 29.96 1015 5 8.0467 0 0
9:55 pm 21:55 Cloudy 54 12 54 12 100 100 E 5 7 29.95 1014 4 6.43736 0 0
10:15 pm 22:15 Cloudy 54 12 54 12 100 100 ENE 8 13 29.95 1014 7 11.26538 0 0
10:35 pm 22:35 Cloudy 54 12 54 12 100 100 NE 6 9 29.95 1014 5 8.0467 0 0
10:55 pm 22:55 Cloudy 54 12 54 12 100 100 NE 6 9 29.93 1014 4 6.43736 0 0
11:15 pm 23:15 Cloudy 54 12 54 12 100 100 NE 7 11 29.93 1014 4 6.43736 0 0
11:35 pm 23:35 Cloudy 52 11 52 11 100 100 NE 7 11 29.92 1013 5 8.0467 0 0
11:55 pm 23:55 Cloudy 52 11 52 11 100 100 NE 5 7 29.92 1013 4 6.43736 0 0

Powered by AerisWeather